Regional Weather Roundup
Issued by NWS

Home | Current Version | Previous Version | Graphics & Text | Print | Product List | Glossary On
Versions: 1 2 3 4 5 6 7 8 9 10 11 12 13 14 15 16 17 18 19 20 21 22 23 24 25 26 27 28 29 30 31 32 33 34 35 36 37 38 39 40 41 42 43 44 45 46 47 48 49 50
978
ASUS43 KBIS 052102
RWRND

NORTH DAKOTA REGIONAL WEATHER ROUNDUP
NATIONAL WEATHER SERVICE BISMARCK ND
300 PM CST MON DEC 05 2016

NOTE: "FAIR" INDICATES FEW OR NO CLOUDS BELOW 12,000 FEET WITH NO
SIGNIFICANT WEATHER AND/OR OBSTRUCTIONS TO VISIBILITY.


NDZ001>003-009>011-017-052200-
NORTHWEST NORTH DAKOTA

CITY           SKY/WX    TMP DP  RH WIND       PRES   REMARKS
WILLISTON      SNOW      14  10  84 NW30G38   29.75R VSB 1/4 WCI  -7
MINOT          CLOUDY    22  19  89 W20       29.59R WCI   7
MINOT AFB      CLOUDY    21  19  89 NW17      29.58S WCI   7
$$

NDZ018>021-031>035-040>046-052200-
SOUTHWEST NORTH DAKOTA

CITY           SKY/WX    TMP DP  RH WIND       PRES   REMARKS
BISMARCK       SNOW      25  24  96 NW20G31   29.61R VSB 1/4 WCI  11
DICKINSON      SNOW      17  13  84 NW25G36   29.67R VSB 1/2 WCI  -1
GARRISON         N/A     24  19  81 NW23G30   29.61R WCI   9
HETTINGER ARPT CLOUDY    20  14  77 NW36G44   29.70R BLWGSNOWWCI   0
$$

NDZ004>008-012>016-024-026-027-054-052200-
NORTHEAST NORTH DAKOTA

CITY           SKY/WX    TMP DP  RH WIND       PRES   REMARKS
GRAND FORKS    CLOUDY    32  27  81 NE8       29.62S
GRND FRKS AFB  CLOUDY    29  27  90 NE10      29.61S
DEVILS LAKE    CLOUDY    26  26 100 E12       29.59F WCI  16
$$

NDZ022-023-025-028>030-036>039-047>053-052200-
SOUTHEAST NORTH DAKOTA

CITY           SKY/WX    TMP DP  RH WIND       PRES   REMARKS
FARGO          CLOUDY    36  29  75 E12       29.53F
JAMESTOWN      CLOUDY    29  27  92 NE10      29.50F WCI  20
$$





USA.gov is the U.S. government's official web portal to all federal, state and local government web resources and services.